• In Hungary
  • List of Countries
  • For 7 days
  • Water Temperature
  • Satellite Maps
  • Weather Map
  • News
  • Weather Widgets
  • user-avatar
    Login

    Hourly Weather Prince Edward Island National Park

    Today, 24 February, Saturday

    Time Temperature Precipitation Wind Pressure Humidity
    00:00 -7°C° 0.4 mm 7 mps 763 mmHg 75%
    01:00 -6°C° 0.4 mm 7 mps 761 mmHg 78%
    02:00 -5°C° 0.4 mm 8 mps 759 mmHg 81%
    03:00 -4°C° 0.2 mm 8 mps 757 mmHg 83%
    04:00 -2°C° 0.2 mm 8 mps 755 mmHg 85%
    05:00 -1°C° 0.2 mm 8 mps 754 mmHg 87%
    06:00 -1°C° 0 mm 8 mps 753 mmHg 88%
    07:00 -1°C° 0 mm 7 mps 752 mmHg 89%
    08:00 -1°C° 0 mm 7 mps 752 mmHg 89%
    09:00 0°C° 0 mm 8 mps 752 mmHg 86%
    10:00 0°C° 0 mm 8 mps 752 mmHg 83%
    11:00 +1°C° 0 mm 9 mps 752 mmHg 80%
    12:00 0°C° 0 mm 9 mps 752 mmHg 75%
    13:00 0°C° 0 mm 9 mps 753 mmHg 71%
    14:00 -1°C° 0 mm 9 mps 754 mmHg 67%
    15:00 -1°C° 0 mm 9 mps 755 mmHg 68%
    16:00 -2°C° 0 mm 8 mps 756 mmHg 69%
    17:00 -4°C° 0 mm 8 mps 757 mmHg 70%
    18:00 -4°C° 0 mm 8 mps 758 mmHg 70%
    19:00 -5°C° 0 mm 8 mps 759 mmHg 70%
    20:00 -5°C° 0 mm 9 mps 761 mmHg 69%
    21:00 -6°C° 0 mm 9 mps 762 mmHg 69%
    22:00 -8°C° 0 mm 9 mps 763 mmHg 70%
    23:00 -9°C° 0 mm 9 mps 764 mmHg 70%

    Tomorrow, 25 February, Sunday

    Time Temperature Precipitation Wind Pressure Humidity
    00:00 -8°C° 0 mm 8 mps 765 mmHg 69%
    01:00 -10°C° 0 mm 8 mps 766 mmHg 68%
    02:00 -11°C° 0 mm 7 mps 768 mmHg 67%
    03:00 -11°C° 0 mm 7 mps 768 mmHg 68%
    04:00 -11°C° 0 mm 6 mps 769 mmHg 69%
    05:00 -11°C° 0 mm 6 mps 770 mmHg 70%
    06:00 -12°C° 0 mm 5 mps 770 mmHg 70%
    07:00 -12°C° 0 mm 5 mps 771 mmHg 70%
    08:00 -13°C° 0 mm 5 mps 772 mmHg 71%
    09:00 -11°C° 0 mm 4 mps 772 mmHg 68%
    10:00 -11°C° 0 mm 4 mps 772 mmHg 65%
    11:00 -10°C° 0 mm 3 mps 772 mmHg 62%
    12:00 -9°C° 0 mm 3 mps 772 mmHg 60%
    13:00 -9°C° 0 mm 3 mps 771 mmHg 58%
    14:00 -8°C° 0 mm 3 mps 771 mmHg 56%
    15:00 -9°C° 0 mm 4 mps 770 mmHg 58%
    16:00 -9°C° 0 mm 4 mps 770 mmHg 59%
    17:00 -8°C° 0 mm 4 mps 769 mmHg 60%
    18:00 -8°C° 0 mm 5 mps 769 mmHg 62%
    19:00 -8°C° 0 mm 5 mps 769 mmHg 64%
    20:00 -8°C° 0 mm 5 mps 768 mmHg 66%
    21:00 -8°C° 0 mm 6 mps 768 mmHg 68%
    22:00 -8°C° 0 mm 7 mps 767 mmHg 70%
    23:00 -8°C° 0 mm 8 mps 766 mmHg 72%

    Day after tomorrow, 26 February, Monday

    Time Temperature Precipitation Wind Pressure Humidity
    00:00 -8°C° 0.5 mm 8 mps 766 mmHg 77%
    01:00 -8°C° 0.5 mm 8 mps 765 mmHg 82%
    02:00 -8°C° 0.5 mm 8 mps 764 mmHg 87%
    03:00 -7°C° 0.4 mm 8 mps 763 mmHg 86%
    04:00 -7°C° 0.4 mm 8 mps 763 mmHg 86%
    05:00 -8°C° 0.4 mm 9 mps 762 mmHg 86%
    06:00 -6°C° 0.1 mm 8 mps 761 mmHg 87%
    07:00 -6°C° 0.1 mm 8 mps 761 mmHg 87%
    08:00 -4°C° 0.1 mm 7 mps 760 mmHg 88%
    09:00 -3°C° 0.2 mm 7 mps 759 mmHg 88%
    10:00 -3°C° 0.2 mm 7 mps 758 mmHg 88%
    11:00 -2°C° 0.2 mm 6 mps 758 mmHg 89%
    12:00 -1°C° 0.5 mm 5 mps 757 mmHg 91%
    13:00 -1°C° 0.5 mm 4 mps 756 mmHg 93%
    14:00 +1°C° 0.5 mm 2 mps 755 mmHg 95%
    15:00 +1°C° 0.2 mm 2 mps 755 mmHg 95%
    16:00 +2°C° 0.2 mm 1 mps 754 mmHg 96%
    17:00 +2°C° 0.2 mm 1 mps 754 mmHg 97%
    18:00 +1°C° 0 mm 2 mps 754 mmHg 96%
    19:00 0°C° 0 mm 3 mps 754 mmHg 96%
    20:00 -1°C° 0 mm 4 mps 755 mmHg 96%
    21:00 -1°C° 0 mm 4 mps 755 mmHg 95%
    22:00 0°C° 0 mm 3 mps 755 mmHg 93%
    23:00 0°C° 0 mm 3 mps 755 mmHg 92%

    27 February, Tuesday

    Time Temperature Precipitation Wind Pressure Humidity
    00:00 -2°C° 0 mm 4 mps 755 mmHg 90%
    01:00 -4°C° 0 mm 5 mps 755 mmHg 87%
    02:00 -4°C° 0 mm 6 mps 755 mmHg 85%
    03:00 -4°C° 0 mm 6 mps 756 mmHg 84%
    04:00 -5°C° 0 mm 6 mps 756 mmHg 83%
    05:00 -5°C° 0 mm 6 mps 756 mmHg 83%
    06:00 -5°C° 0 mm 6 mps 757 mmHg 82%
    07:00 -6°C° 0 mm 7 mps 758 mmHg 81%
    08:00 -7°C° 0 mm 7 mps 758 mmHg 81%
    09:00 -6°C° 0 mm 7 mps 758 mmHg 77%
    10:00 -6°C° 0 mm 8 mps 759 mmHg 74%
    11:00 -5°C° 0 mm 8 mps 759 mmHg 71%
    12:00 -5°C° 0 mm 8 mps 759 mmHg 69%
    13:00 -5°C° 0 mm 8 mps 759 mmHg 68%
    14:00 -4°C° 0 mm 8 mps 759 mmHg 67%
    15:00 -4°C° 0 mm 7 mps 759 mmHg 68%
    16:00 -4°C° 0 mm 6 mps 760 mmHg 70%
    17:00 -4°C° 0 mm 6 mps 760 mmHg 71%
    18:00 -4°C° 0 mm 5 mps 760 mmHg 73%
    19:00 -5°C° 0 mm 5 mps 761 mmHg 76%
    20:00 -4°C° 0 mm 4 mps 761 mmHg 78%
    21:00 -5°C° 0 mm 4 mps 761 mmHg 79%
    22:00 -5°C° 0 mm 4 mps 761 mmHg 80%
    23:00 -5°C° 0 mm 3 mps 761 mmHg 81%

    28 February, Wednesday

    Time Temperature Precipitation Wind Pressure Humidity
    00:00 -5°C° 0 mm 3 mps 761 mmHg 82%
    01:00 -6°C° 0 mm 3 mps 761 mmHg 83%
    02:00 -5°C° 0 mm 2 mps 760 mmHg 84%
    03:00 -5°C° 0 mm 2 mps 761 mmHg 85%
    04:00 -5°C° 0 mm 2 mps 761 mmHg 85%
    05:00 -5°C° 0 mm 2 mps 761 mmHg 85%
    06:00 -5°C° 0 mm 2 mps 761 mmHg 85%
    07:00 -5°C° 0 mm 2 mps 761 mmHg 84%
    08:00 -5°C° 0 mm 2 mps 762 mmHg 83%
    09:00 -6°C° 0 mm 3 mps 762 mmHg 78%
    10:00 -5°C° 0 mm 3 mps 762 mmHg 74%
    11:00 -4°C° 0 mm 4 mps 762 mmHg 69%
    12:00 -4°C° 0 mm 4 mps 762 mmHg 68%
    13:00 -4°C° 0 mm 4 mps 762 mmHg 67%
    14:00 -3°C° 0 mm 4 mps 762 mmHg 66%
    15:00 -4°C° 0 mm 4 mps 763 mmHg 67%
    16:00 -4°C° 0 mm 4 mps 763 mmHg 69%
    17:00 -5°C° 0 mm 3 mps 764 mmHg 70%
    18:00 -5°C° 0 mm 3 mps 764 mmHg 73%
    19:00 -6°C° 0 mm 3 mps 764 mmHg 75%
    20:00 -6°C° 0 mm 3 mps 765 mmHg 77%
    21:00 -5°C° 0 mm 2 mps 765 mmHg 79%
    22:00 -6°C° 0 mm 2 mps 765 mmHg 80%
    23:00 -6°C° 0 mm 2 mps 765 mmHg 81%

    1 March, Thursday

    Time Temperature Precipitation Wind Pressure Humidity
    00:00 -6°C° 0 mm 2 mps 765 mmHg 82%
    01:00 -6°C° 0 mm 2 mps 766 mmHg 83%
    02:00 -6°C° 0 mm 2 mps 766 mmHg 85%
    03:00 -6°C° 0 mm 2 mps 766 mmHg 85%
    04:00 -7°C° 0 mm 3 mps 766 mmHg 86%
    05:00 -8°C° 0 mm 3 mps 766 mmHg 87%
    06:00 -8°C° 0 mm 3 mps 766 mmHg 87%
    07:00 -7°C° 0 mm 3 mps 767 mmHg 87%
    08:00 -7°C° 0 mm 3 mps 767 mmHg 87%
    09:00 -6°C° 0 mm 3 mps 767 mmHg 85%
    10:00 -6°C° 0 mm 3 mps 767 mmHg 83%
    11:00 -5°C° 0 mm 3 mps 767 mmHg 81%
    12:00 -4°C° 0 mm 3 mps 767 mmHg 80%
    13:00 -2°C° 0 mm 3 mps 766 mmHg 79%
    14:00 -2°C° 0 mm 3 mps 766 mmHg 79%
    15:00 -2°C° 0 mm 3 mps 766 mmHg 82%
    16:00 -2°C° 0 mm 3 mps 766 mmHg 84%
    17:00 -4°C° 0 mm 3 mps 766 mmHg 87%
    18:00 -4°C° 0 mm 3 mps 766 mmHg 89%
    19:00 -4°C° 0 mm 3 mps 765 mmHg 90%
    20:00 -5°C° 0 mm 3 mps 765 mmHg 92%
    21:00 -5°C° 0 mm 3 mps 765 mmHg 92%
    22:00 -5°C° 0 mm 3 mps 765 mmHg 92%
    23:00 -5°C° 0 mm 3 mps 764 mmHg 92%
    Show more